Retour au catalogue

FAISAT 2V

ActifCommunicationsPO
NORAD 24954·PAYLOAD·🇺🇸 United States

Lancé Sep 23, 1997 depuis Plesetsk Cosmodrome

Loading…

Prochains Passages (prochaines 24 heures)

TLE

FraisSource: Space-Track

Époque: Sep 14, 2026, 13:35 UTC

1 24954U 97052B   26257.56632218  .00000052  00000-0  34150-4 0  9996
2 24954  82.9187 277.1573 0040555  61.4349 110.9349 13.80382185459339

Suivez FAISAT 2V en temps réel avec AllMySat

Download on the App Store